Cancun, Mexico

7:19 AM on September 21, 2017 (GMT +0000)
Cancun International

Weather History for MMUN - June, 2013

Change the Weather History Date:

Saturday, June 1, 2013

  Actual Average Record
Temperature  
Mean Temperature 80 °F -  
Max Temperature 86 °F 88 °F 93 °F (1999)
Min Temperature 73 °F 75 °F 69 °F (1999)
Cooling Degree Days 14    
Growing Degree Days 30 (Base 50)    
Moisture  
Dew Point 76 °F    
Average Humidity 89    
Maximum Humidity 100    
Minimum Humidity 74    
Precipitation  
Precipitation 3.95 in - - ()
Sea Level Pressure  
Sea Level Pressure 29.89 in    
Wind  
Wind Speed 10 mph ()    
Max Wind Speed 22 mph    
Max Gust Speed -    
Visibility 4.2 miles    
Events Rain , Thunderstorm    
Averages and records for this station are not official NWS values.
T = Trace of Precipitation, MM = Missing Value Source: Averaged Metar Reports

Daily Weather History Graph

Daily Weather History Graph

Search for Another Location

Airport or City:

Trip Planner

Search our weather history database for the weather conditions in past years. The results will help you decide how hot, cold, wet, or windy it might be!

Date:

Astronomy

Jun. 01, 2013 Rise Set
Actual Time 6:05 AM CDT 7:25 PM CDT
Civil Twilight 5:41 AM CDT 7:49 PM CDT
Nautical Twilight 5:11 AM CDT 8:19 PM CDT
Astronomical Twilight 4:41 AM CDT 8:49 PM CDT
Moon 1:14 AM CDT (6/1) 1:37 PM CDT (6/1)
Length of Visible Light 14h 08m
Length of Day
13h 19m
Last Quarter, 40% of the Moon is Illuminated
Jun 1
Last Quarter
Jun 8
New
Jun 16
First Quarter
Jun 23
Full
Jun 29
Last Quarter

Hourly Weather History & Observations

Time (CDT) Temp. Heat Index Dew Point Humidity Pressure Visibility Wind Dir Wind Speed Gust Speed Precip Events Conditions
12:45 AM 80.6 °F 87.1 °F 77.0 °F 89% 29.89 in 7.0 mi SE 10.4 mph - N/A   Mostly Cloudy
1:44 AM 80.6 °F 87.1 °F 77.0 °F 89% 29.89 in 7.0 mi SE 11.5 mph - N/A   Mostly Cloudy
2:44 AM 80.6 °F 86.2 °F 75.2 °F 84% 29.87 in 7.0 mi ESE 9.2 mph - N/A   Mostly Cloudy
3:46 AM 80.6 °F 86.2 °F 75.2 °F 84% 29.86 in 7.0 mi SE 11.5 mph - N/A   Mostly Cloudy
4:45 AM 80.6 °F 86.2 °F 75.2 °F 84% 29.85 in 7.0 mi SE 11.5 mph - N/A   Scattered Clouds
5:44 AM 80.6 °F 86.2 °F 75.2 °F 84% 29.86 in 7.0 mi SE 9.2 mph - N/A   Partly Cloudy
6:43 AM 80.6 °F 86.2 °F 75.2 °F 84% 29.90 in 7.0 mi ESE 13.8 mph - N/A   Scattered Clouds
7:40 AM 82.4 °F 90.9 °F 77.0 °F 84% 29.89 in 6.0 mi SE 11.5 mph - N/A   Mostly Cloudy
8:40 AM 84.2 °F 94.1 °F 77.0 °F 79% 29.91 in 6.0 mi ESE 16.1 mph - N/A   Mostly Cloudy
9:40 AM 84.2 °F 94.1 °F 77.0 °F 79% 29.92 in 6.0 mi ESE 16.1 mph - N/A   Mostly Cloudy
10:42 AM 86.0 °F 96.9 °F 77.0 °F 74% 29.91 in 6.0 mi ESE 13.8 mph - N/A   Mostly Cloudy
11:40 AM 86.0 °F 96.9 °F 77.0 °F 74% 29.90 in 6.0 mi ESE 17.3 mph - N/A   Mostly Cloudy
12:06 PM 82.4 °F 92.4 °F 78.8 °F 89% 29.90 in 3.0 mi SE 21.9 mph - N/A Rain Rain
12:44 PM 82.4 °F 92.4 °F 78.8 °F 89% 29.90 in 4.0 mi ESE 11.5 mph - N/A Rain Light Rain
1:18 PM 82.4 °F 92.4 °F 78.8 °F 89% 29.88 in 5.0 mi ESE 8.1 mph - N/A   Mostly Cloudy
1:40 PM 82.4 °F 92.4 °F 78.8 °F 89% 29.89 in 5.0 mi ESE 9.2 mph - N/A   Mostly Cloudy
2:40 PM 77.0 °F - 73.4 °F 89% 29.86 in 3.0 mi South 6.9 mph - N/A Rain Light Rain
2:50 PM 77.0 °F - 75.2 °F 94% 29.86 in 4.0 mi SSE 4.6 mph - N/A Rain Light Rain
3:28 PM 78.8 °F - 75.2 °F 89% - 4.0 mi NE 3.5 mph - N/A Rain Light Rain
3:50 PM 77.0 °F - 75.2 °F 94% 29.87 in 4.0 mi NNE 5.8 mph - N/A Rain Light Rain
4:17 PM 77.0 °F - 75.2 °F 94% 29.86 in 1.0 mi SE 10.4 mph - N/A Rain Rain
4:46 PM 77.0 °F - 75.2 °F 94% 29.85 in 0.2 mi NNW 10.4 mph - N/A Rain , Thunderstorm Heavy Thunderstorms and Rain
5:41 PM 75.2 °F - 73.4 °F 94% 29.87 in 1.0 mi North 8.1 mph - N/A Rain , Thunderstorm Thunderstorms and Rain
6:41 PM 75.2 °F - 73.4 °F 94% 29.91 in 0.5 mi ENE 11.5 mph - N/A Rain , Thunderstorm Heavy Thunderstorms and Rain
7:41 PM 75.2 °F - 73.4 °F 94% 29.90 in 1.0 mi ESE 6.9 mph - N/A Rain , Thunderstorm Thunderstorms and Rain
8:40 PM 73.4 °F - 71.6 °F 94% 29.91 in 2.0 mi East 15.0 mph - N/A Rain , Thunderstorm Heavy Thunderstorms and Rain
9:44 PM 75.2 °F - 73.4 °F 94% 29.94 in 1.0 mi ENE 4.6 mph - N/A Rain , Thunderstorm Heavy Thunderstorms and Rain
10:26 PM 75.2 °F - 73.4 °F 94% 29.95 in 3.0 mi NNE 5.8 mph - N/A Rain Rain
10:40 PM 75.2 °F - 73.4 °F 94% 29.95 in 3.0 mi NNE 4.6 mph - N/A Rain Rain
11:40 PM 75.2 °F - 75.2 °F 100% 29.94 in 2.0 mi ENE 4.6 mph - N/A Rain Rain